Regional Weather Roundup
Issued by NWS

Home | Current Version | Previous Version | Graphics & Text | Print | Product List | Glossary On
Versions: 1 2 3 4 5 6 7 8 9 10 11 12 13 14 15 16 17 18 19 20 21 22 23 24 25 26 27 28 29 30 31 32 33 34 35 36 37 38 39 40 41 42 43 44 45 46 47 48 49 50
000
ASUS45 KBOU 310607
RWRCO

WEATHER ROUNDUP FOR COLORADO
NATIONAL WEATHER SERVICE DENVER/BOULDER CO
1200 AM MDT SUN AUG 31 2014

NOTE: "FAIR" INDICATES FEW OR NO CLOUDS BELOW 12000 FEET WITH NO
SIGNIFICANT WEATHER AND/OR OBSTRUCTIONS TO VISIBILITY.

COZ001>005-013-030-031-310700-
...NORTHWEST COLORADO...

CITY           SKY/WX    TMP DP  RH WIND       PRES   REMARKS
CRAIG          MOCLDY    55  49  80 SE5       30.01R
HAYDEN         MOCLDY    59  43  55 SW8G17    30.04R
MEEKER         CLOUDY    60  46  59 SE6       30.02F
MOUNT WERNER   NOT AVBL
STEAMBOAT SPGS MOCLDY    54  45  72 CALM      30.08R
WALDEN         MOCLDY    46  41  81 E5        30.13S
$$

COZ006>008-011-310700-
...WEST CENTRAL VALLEYS...

CITY           SKY/WX    TMP DP  RH WIND       PRES   REMARKS
GRAND JUNCTION PTCLDY    72  43  35 E15       29.87F
MONTROSE       CLEAR     65  40  39 SE12      30.02F
EAGLE          PTCLDY    52  48  87 CALM      30.09F
RIFLE          PTCLDY    59  50  72 W3        29.96F
DELTA          CLEAR     66  46  47 NE6       29.97F
NUCLA          CLEAR     66  36  32 SE3       30.05F
$$

COZ017>023-064>068-310700-
...SOUTHWEST COLORADO...

CITY           SKY/WX    TMP DP  RH WIND       PRES   REMARKS
DURANGO        CLEAR     58  40  51 CALM      30.13S
CORTEZ         CLEAR     56  44  64 E7        30.06F
PAGOSA SPRINGS CLEAR     55  35  47 CALM      30.21S
TELLURIDE      CLEAR     55  36  47 E6        30.29F
WOLF CREEK PAS CLEAR     46  30  53 SW24G31   30.48F
$$

COZ009-010-012-014-032>034-037-058>063-310700-
...CENTRAL COLORADO...

CITY           SKY/WX    TMP DP  RH WIND       PRES   REMARKS
ASPEN          CLEAR     47  40  76 S6        30.13F
BUENA VISTA    CLEAR     46  40  80 CALM      30.19F
COPPER MTN     CLEAR     52  30  43 S22G32    30.43F
BERTHOUD PASS  FAIR      41  39  93 W20G31    30.44F
COTTONWOOD PAS CLEAR     55  34  44 SE6       30.29F
GUNNISON       CLEAR     50  39  66 N7        30.21F
KREMMLING      PTCLDY    50  41  71 SW5       30.12F
LEADVILLE      CLEAR     40  34  79 VRB5      30.28F
SALIDA         CLEAR     56  41  56 N5        30.22F
SUNLIGHT       PTCLDY    45  41  87 SW3       30.31F
WILKERSON PASS NOT AVBL
$$

COZ069>075-310700-
...SAN LUIS VALLEY/SANGRE DE CRISTO MOUNTAINS...

CITY           SKY/WX    TMP DP  RH WIND       PRES   REMARKS
ALAMOSA        PTCLDY    51  43  74 S6        30.18S
LA VETA PASS   NOT AVBL
SAGUACHE       NOT AVBL
$$

COZ035-036-038>040-310700-
...NORTHERN COLORADO FRONT RANGE...

CITY           SKY/WX    TMP DP  RH WIND       PRES   REMARKS
DENVER INTL AP PTCLDY    59  48  67 SE9       29.96F
DMNS CITY PARK   N/A     65  46  49 S2G8      29.96F
AURORA         PTCLDY    61  45  56 S9        29.99F
FRONT RANGE AP NOT AVBL
ERIE MUNI ARPT PTCLDY    58  53  82 CALM      29.96F
BOULDER MUN AP PTCLDY    63  45  51 CALM      29.96F
CENTENNIAL     PTCLDY    60  45  57 S9        30.00F
BROOMFIELD     PTCLDY    63  45  51 CALM      29.99F
FORT COLLINS   MOCLDY    61  52  72 CALM      29.97S
LONGMONT       MOCLDY    60  50  70 CALM      29.96F
$$

COZ041-046-047-076>085-087-088-310700-
...PIKES PEAK/PALMER DIVIDE AND SOUTHERN FOOTHILLS...

CITY           SKY/WX    TMP DP  RH WIND       PRES   REMARKS
COLO. SPRINGS  PTCLDY    64  44  48 NE8       30.05F
A. F. ACADEMY  PTCLDY    56  45  67 N6        30.06F
ELLICOTT       PTCLDY    61  47  59 E9        30.03F
FALCON         PTCLDY    57  44  60 N6        30.10F
FORT CARSON    PTCLDY    63  44  49 NW5       30.02F
LIMON          MOCLDY    62  49  62 SE8       30.00F
MONUMENT HILL  PTCLDY    50  43  76 S8        30.09F
TRINIDAD       MOCLDY    72  40  31 W8        30.02S
$$

COZ042>045-048>051-090-091-310700-
...NORTHEAST COLORADO...

CITY           SKY/WX    TMP DP  RH WIND       PRES   REMARKS
GREELEY ARPT   MOCLDY    59  50  72 NW9       29.94F
AKRON          CLOUDY    68  48  48 E7        29.93F
BURLINGTON     CLOUDY    72  55  55 SW8       29.99R
WRAY             N/A     73  52  48 W5        29.88F
STERLING       CLOUDY    70  52  52 CALM      29.86F
HOLYOKE        MOCLDY    73  55  53 N3        29.88F
FORT MORGAN    CLOUDY    62  49  62 NE3       29.91F
$$

COZ086-089-092>099-310700-
...SOUTHEAST COLORADO...

CITY           SKY/WX    TMP DP  RH WIND       PRES   REMARKS
PUEBLO         PTCLDY    71  43  36 N10       29.92F
LA JUNTA       CLOUDY    75  46  35 N9        29.89R
LAMAR          CLOUDY    73  52  47 NW8       29.87R
SPRINGFIELD      N/A     71  50  47 S12G20    29.94S
$$



USA.gov is the U.S. government's official web portal to all federal, state and local government web resources and services.